{"data":{"norad_id":58708,"epoch":"2026-09-20T20:54:19.663488Z","epoch_age_seconds":117399,"freshness":"FRESH","line1":"1 58708U 24002D   26263.87106092 -.00000692  00000+0 -84785-6 0  9994","line2":"2 58708  53.1566  31.7799 0001351 105.6098 254.5069 15.69713082157096","mean_motion":15.69713082,"eccentricity":0.0001351,"inclination_deg":53.1566,"raan_deg":31.7799,"arg_perigee_deg":105.6098,"mean_anomaly_deg":254.5069,"bstar":-8.4785e-7,"rev_number":15709,"period_min":91.736510099366,"perigee_km":358.80764672877,"apogee_km":360.62821513111,"semimajor_km":6737.8549309299,"source":"CELESTRAK","updated_at":"2026-09-21T09:00:33.947234Z"}}